This is the latest recevied weather packets stored in our database for station/object NL3D. If no packets are shown the sender has not sent any weather packets the latest 1 day(s).
| Time | Temp. | Humidity | Pressure | Rain* | Wind** | Luminosity | Snow |
|---|---|---|---|---|---|---|---|
| 1778019975 | 10° C | 63% | 1006.6 hPa | 0 mm | 0 m/s | 302 W/m² | - |
| 1778019671 | 9.44° C | 64% | 1006.6 hPa | 0 mm | 0.45 m/s, 247° | 308 W/m² | - |
| 1778019368 | 9.44° C | 63% | 1006.7 hPa | 0 mm | 0.89 m/s, 168° | 325 W/m² | - |
| 1778019065 | 9.44° C | 64% | 1006.7 hPa | 0 mm | 0.45 m/s, 343° | 333 W/m² | - |
| 1778018762 | 9.44° C | 65% | 1006.8 hPa | 0 mm | 0.89 m/s, 119° | 311 W/m² | - |
| 1778018460 | 9.44° C | 65% | 1006.7 hPa | 0 mm | 0.89 m/s, 203° | 274 W/m² | - |
| 1778018158 | 9.44° C | 66% | 1006.6 hPa | 0 mm | 0.89 m/s, 173° | 259 W/m² | - |
| 1778017855 | 9.44° C | 68% | 1006.5 hPa | 0 mm | 0 m/s | 255 W/m² | - |
| 1778017553 | 9.44° C | 65% | 1006.6 hPa | 0 mm | 0.45 m/s, 193° | 281 W/m² | - |
| 1778017249 | 9.44° C | 68% | 1006.5 hPa | 0 mm | 0 m/s | 277 W/m² | - |
| 1778016943 | 9.44° C | 69% | 1006.3 hPa | 0 mm | 0 m/s | 267 W/m² | - |
| 1778016638 | 9.44° C | 68% | 1006.5 hPa | 0 mm | 0.89 m/s, 160° | 216 W/m² | - |
| 1778016335 | 9.44° C | 68% | 1006.4 hPa | 0 mm | 0.45 m/s, 153° | 217 W/m² | - |
| 1778016032 | 9.44° C | 66% | 1006.2 hPa | 0 mm | 0.89 m/s, 98° | 247 W/m² | - |
| 1778015729 | 9.44° C | 68% | 1006.1 hPa | 0 mm | 0.89 m/s, 85° | 282 W/m² | - |
| 1778015426 | 9.44° C | 68% | 1006.4 hPa | 0 mm | 0.45 m/s, 46° | 261 W/m² | - |
| 1778015122 | 8.89° C | 72% | 1006.2 hPa | 0 mm | 0 m/s | 247 W/m² | - |
| 1778014819 | 8.33° C | 70% | 1006.2 hPa | 0 mm | 0.89 m/s, 198° | 230 W/m² | - |
| 1778014517 | 8.89° C | 73% | 1006.3 hPa | 0 mm | 0.89 m/s, 216° | 212 W/m² | - |
| 1778014215 | 8.89° C | 71% | 1006.2 hPa | 0 mm | 0.45 m/s, 170° | 206 W/m² | - |
| 1778013912 | 8.89° C | 72% | 1005.9 hPa | 0 mm | 0.89 m/s, 10° | 179 W/m² | - |
| 1778013609 | 8.33° C | 72% | 1006.2 hPa | 0 mm | 0.89 m/s, 150° | 198 W/m² | - |
| 1778013305 | 8.33° C | 76% | 1006.1 hPa | 0 mm | 1.34 m/s, 150° | 198 W/m² | - |
| 1778013001 | 8.33° C | 74% | 1005.9 hPa | 0 mm | 0.89 m/s, 44° | 198 W/m² | - |
| 1778012698 | 8.33° C | 74% | 1006.1 hPa | 0 mm | 0.89 m/s, 25° | 211 W/m² | - |
* Rain latest hour (hover to see other rain measurements)
** Current wind speed in m/s (hover to see current wind gust speed)